Regional Weather Roundup
Issued by NWS Charleston, SC

Current Version | Previous Version | Graphics & Text | Print | Product List | Glossary On
Versions: 1 2 3 4 5 6 7 8 9 10 11 12 13 14 15 16 17 18 19 20 21 22 23 24 25 26 27 28 29 30 31 32 33 34 35 36 37 38 39 40 41 42 43 44 45 46 47 48 49 50
000
ASUS42 KCHS 280125
RWRCHS

REGIONAL WEATHER ROUNDUP
NATIONAL WEATHER SERVICE CHARLESTON SC
900 PM EDT WED AUG 27 2014

NOTE: "FAIR" INDICATES FEW OR NO CLOUDS BELOW 12,000 FEET WITH NO
SIGNIFICANT WEATHER AND/OR OBSTRUCTIONS TO VISIBILITY.

NOT ALL STATIONS ARE QUALITY CONTROLLED BY THE NATIONAL
WEATHER SERVICE. USE DATA WITH CAUTION...ESPECIALLY
DEWPOINT OBSERVATIONS.

SCZ027-030-031-034>040-042>050-280200-
...SOUTH CAROLINA...

CITY           SKY/WX    TMP DP  RH WIND       PRES   REMARKS
N CHARLESTON   CLEAR     77  60  55 CALM      30.00R
WATERFRONT PRK   N/A     81 N/A N/A S7          N/A
FORT JOHNSON   NOT AVBL
MOUNT PLEASANT FAIR      73  70  88 CALM      30.00R
JOHNS ISLAND   CLEAR     75  70  83 CALM      30.00R
PINOPOLIS        N/A     81  59  47 CALM      29.92R
MONCKS CORNER    N/A     72  70  94 CALM      29.99S
SUMMERVILLE    FAIR      72  68  88 CALM      30.00S
BEAUFORT MCAS  CLEAR     77  63  61 CALM      29.99R
BEAUFORT ARPT  FAIR      73  68  83 S3        29.99R
HILTON HEAD IS CLOUDY    73  68  83 CALM      30.01R
GEORGETOWN     NOT AVBL
WALTERBORO     CLEAR     73  61  64 CALM      30.00S
ORANGEBURG     CLEAR     72  60  66 CALM      29.99R
BARNWELL       FAIR      73  57  56 CALM      30.00R
AIKEN          FAIR      77  59  53 CALM      30.04R
MANNING        FAIR      70  70 100 CALM      29.99R
KINGSTREE      NOT AVBL
COLUMBIA       PTCLDY    84  57  39 N3        29.99R
SUMTER         CLEAR     78  57  49 CALM      29.98R
FLORENCE       CLEAR     72  61  68 CALM      29.98R
MYRTLE BEACH   CLEAR     75  66  73 CALM      29.98R
N MYRTLE BEACH NOT AVBL

$$

GAZ063-065-086>088-099>101-113>116-118-119-134-136>141-150-280200-
...GEORGIA...

CITY           SKY/WX    TMP DP  RH WIND       PRES   REMARKS
SAVANNAH ARPT  PTCLDY    77  63  61 S5        30.00R
HUNTER AAF     CLEAR     77  65  66 S5        29.98R
FORT STEWART   CLEAR     76  63  64 SE5       29.99R
STATESBORO     NOT AVBL
SYLVANIA       CLEAR     72  67  86 CALM      30.01R
CLAXTON        NOT AVBL
THOMSON        CLEAR     72  66  80 CALM      30.06R
AUGUSTA-BUSH   CLEAR     70  61  73 CALM      29.98R
AUGUSTA-DANIEL CLEAR     86  52  30 N6        30.00R
SWAINSBORO     FAIR      75  63  64 CALM      30.01R
VIDALIA          N/A     75  63  64 CALM      30.01R
ALMA           CLEAR     72  62  71 CALM      29.99R
WAYCROSS       CLEAR     81  69  66 SE9       30.00R
JESUP            N/A     79  68  69 CALM      30.01R
BRUNSWICK      CLEAR     72  64  78 CALM      30.02R
SAINT SIMONS   CLEAR     77  64  64 E5        30.00R

$$

SCZ027-028-034-036>038-045-046-048>050-GAZ119-141-280200-
...LAKE AND SUPPLEMENTAL COASTAL OBSERVATIONS...

STATION/POSITION TIME  TEMP    WIND        PRES    WAVE   SWELL
                       AIR SEA DIR/SP/G            HT/PER HT/PER/DIR
                 (UTC) (F)     (DEG/KT/KT) (MB)    (FT/S) (FT/S/D)
UPR LAKE MARION  NOT AVBL
WINYAH BAY       0000   81     310/  2     1014.0S
LAKE MURRAY      0100   81      CALM  /  4 1014.9S
ACE BASIN NERRS  0000   79        CALM     1015.0S
FORT PULASKI     0100   79     150/  4/  5 1015.9R
SAPELO ISLAND    0000   78     100/  2     1016.0S

$$

ANZ835-935-AMZ111-154-330-350-352-354-374-450-454-472-280200-
...C-MAN AND BUOY OBSERVATIONS...

STATION/POSITION TIME  TEMP    WIND        PRES    WAVE   SWELL
                       AIR SEA DIR/SP/G            HT/PER HT/PER/DIR
                 (UTC) (F)     (DEG/KT/KT) (MB)    (FT/S) (FT/S/D)
FOLLY BEACH CMAN 0100   80     210/  6/  7 1016.3R
BUOY 41004       0100   81 82  250/  2/  4 1015.2R   7/11   7/11
BUOY 41008       0100   80 84   90/ 10/ 12 1015.7R   4/11   3/100/11
5E ST. MARYS GA  0100      83                N/A     4/10   2/ 90/11
FRYING PAN BUOY  NOT AVBL
BUOY 41025       0100   75     340/ 19/ 25 1012.2R  10/11   8/120/11
CAPE LOOKOUT NC  0100   79      10/  7/  9 1013.7R
BUOY 41002       0003   81 81  340/ 16/ 19 1012.6R  10/ 9   8/ 50/ 9
BUOY 41010       0100   82 84   30/  4/  6 1015.6R  10/11  10/ 50/11
BUOY 41012       NOT AVBL
ST AUGUSTINE FL  0100   80      50/  9/ 11 1016.6R
CAPERS NEARSHORE 0000   81     240/  6/  8   N/A
FRIPP NEARSHORE  NOT AVBL


$$


USA.gov is the U.S. government's official web portal to all federal, state and local government web resources and services.